Hagerstown, MD

3:01 AM EST on November 21, 2019 (GMT -0500)
Hagerstown Regional-Henson

Weather History for KHGR - September, 2019

Change the Weather History Date:

Thursday, September 26, 2019

  Actual Average Record
Temperature  
Mean Temperature 71 °F 62 °F  
Max Temperature 82 °F 72 °F 91 °F (2007)
Min Temperature 59 °F 52 °F 43 °F (2001)
Degree Days  
Heating Degree Days 0 4  
Month to date heating degree days 1 46  
Since 1 July heating degree days 1 51  
Cooling Degree Days 6 1  
Month to date cooling degree days 202 87  
Year to date cooling degree days 1411 955  
Growing Degree Days 22 (Base 50)    
Moisture  
Dew Point 53 °F    
Average Humidity 54    
Maximum Humidity 72    
Minimum Humidity 35    
Precipitation  
Precipitation 0.01 in 0.14 in 1.70 in (2002)
Month to date precipitation 0.40 3.11  
Year to date precipitation 28.77 29.74  
Sea Level Pressure  
Sea Level Pressure 29.87 in    
Wind  
Wind Speed 6 mph (WSW)    
Max Wind Speed 20 mph    
Max Gust Speed 26 mph    
Visibility 10 miles    
Events Rain    
T = Trace of Precipitation, MM = Missing Value Source: NWS Daily Summary

Daily Weather History Graph

Daily Weather History Graph

Search for Another Location

Airport or City:

Astronomy

Sep. 26, 2019 Rise Set
Actual Time 7:02 AM EDT 7:01 PM EDT
Civil Twilight 6:35 AM EDT 7:28 PM EDT
Nautical Twilight 6:03 AM EDT 8:00 PM EDT
Astronomical Twilight 5:31 AM EDT 8:31 PM EDT
Moon 4:06 AM EDT (9/26) 6:13 PM EDT (9/26)
Length of Visible Light 12h 53m
Length of Day
11h 59m
Waning Crescent, 7% of the Moon is Illuminated
Sep 26
Waning Crescent
Sep 28
New
Oct 5
First Quarter
Oct 13
Full
Oct 21
Last Quarter

Hourly Weather History & Observations

Time (EDT) Temp. Heat Index Dew Point Humidity Pressure Visibility Wind Dir Wind Speed Gust Speed Precip Events Conditions
12:53 AM 66.0 °F - 52.0 °F 60% 29.88 in 10.0 mi SSE 5.8 mph - N/A   Clear
1:53 AM 66.0 °F - 52.0 °F 60% 29.86 in 10.0 mi SSE 8.1 mph - N/A   Clear
2:53 AM 62.1 °F - 51.1 °F 67% 29.85 in 10.0 mi South 3.5 mph - N/A   Clear
3:53 AM 61.0 °F - 51.1 °F 70% 29.84 in 10.0 mi Calm Calm - N/A   Clear
4:53 AM 61.0 °F - 51.1 °F 70% 29.84 in 10.0 mi Calm Calm - N/A   Scattered Clouds
5:53 AM 61.0 °F - 52.0 °F 72% 29.82 in 10.0 mi ESE 3.5 mph - N/A   Clear
6:53 AM 61.0 °F - 52.0 °F 72% 29.84 in 10.0 mi Calm Calm - N/A   Scattered Clouds
7:53 AM 61.0 °F - 52.0 °F 72% 29.86 in 10.0 mi Calm Calm - N/A   Partly Cloudy
8:53 AM 66.0 °F - 55.0 °F 68% 29.84 in 10.0 mi South 6.9 mph - N/A   Scattered Clouds
9:53 AM 68.0 °F - 55.0 °F 63% 29.84 in 10.0 mi SSW 4.6 mph - N/A   Mostly Cloudy
10:53 AM 70.0 °F - 55.0 °F 59% 29.83 in 10.0 mi South 8.1 mph - N/A   Scattered Clouds
11:53 AM 71.1 °F - 57.0 °F 61% 29.84 in 10.0 mi WSW 4.6 mph - 0.00 in Rain Light Rain
12:53 PM 73.0 °F - 55.0 °F 53% 29.84 in 10.0 mi WSW 5.8 mph - 0.00 in   Overcast
1:53 PM 73.9 °F - 59.0 °F 59% 29.84 in 10.0 mi SW 8.1 mph - 0.01 in   Mostly Cloudy
2:53 PM 80.1 °F 80.6 °F 57.9 °F 47% 29.83 in 10.0 mi WNW 9.2 mph - N/A   Mostly Cloudy
3:53 PM 81.0 °F 81.0 °F 57.0 °F 44% 29.82 in 10.0 mi NW 18.4 mph - N/A   Scattered Clouds
4:53 PM 82.0 °F 81.2 °F 53.1 °F 37% 29.84 in 10.0 mi NW 12.7 mph - N/A   Partly Cloudy
5:53 PM 81.0 °F - 50.0 °F 34% 29.86 in 10.0 mi NW 11.5 mph - N/A   Partly Cloudy
7:53 PM 73.0 °F - 48.9 °F 42% 29.92 in 10.0 mi NNW 8.1 mph - N/A   Clear
8:53 PM 71.1 °F - 52.0 °F 51% 29.94 in 10.0 mi NNW 8.1 mph - N/A   Clear
9:53 PM 70.0 °F - 51.1 °F 51% 29.96 in 10.0 mi North 10.4 mph - N/A   Clear
10:53 PM 68.0 °F - 48.9 °F 50% 29.99 in 10.0 mi NNE 8.1 mph - N/A   Clear
11:53 PM 66.0 °F - 46.9 °F 50% 30.00 in 10.0 mi Calm Calm - N/A   Clear